Home > Weather > Yuzhno-Sakhalinsk > Past weeks

Flag for Russia Weather for the Past 2 Weeks in Yuzhno-Sakhalinsk, Russia

Now
12 °F

Passing clouds.


Feels Like: 3 °F
Forecast: 2 / 26 °F
Wind: 6 mph from Southeast

Location: Yuzhno Airport-Sakhalinsk

Current Time: Feb 8, 2016 at 6:27:42 PM

Latest Report: Feb 8, 2016 at 6:00 PM


Visibility: N/A

Pressure: 30.04 "Hg

Humidity: 73%

Dew point: 5 °F

Location of Yuzhno-SakhalinskLocation

Historic Weather in Yuzhno-Sakhalinsk — Graph

°F

Yuzhno-Sakhalinsk Temperature Yesterday

Maximum temperature yesterday: 14 °F (at 3:00 PM)
Minimum temperature yesterday: -22 °F (at 5:00 AM)
Average temperature yesterday: -3 °F

High & Low Weather Summary for the Past Weeks

 TemperatureHumidityPressure
High25 °F (Jan 26, 3:00 PM)93% (Jan 28, 2:00 AM)30.27 "Hg (Jan 28, 2:00 AM)
Low-27 °F (Feb 8, 7:00 AM)47% (Jan 30, 2:00 PM)29.65 "Hg (Feb 5, 5:30 AM)
Average1 °F78%29.95 "Hg
* Reported Jan 24 5:00 PM — Feb 8 5:00 PM, Yuzhno-Sakhalinsk, Weather by CustomWeather, © 2016

Note: Actual official high and low records may vary slightly from our data, if they occured in-between our weather recording intervals... More about our weather records

Advertising

Yuzhno-Sakhalinsk Weather History for the Previous 24 Hours

 ConditionsComfort  
Time TempWeatherWind HumidityBarometerVisibility
5:00 PM
Mon, Feb 8
14 °FPassing clouds.6 mph67%30.04 "HgN/A
4:30 PM14 °FScattered clouds.6 mph62%30.04 "HgN/A
4:00 PM16 °FScattered clouds.6 mph53%30.04 "HgN/A
3:30 PM16 °FScattered clouds.3 mph57%30.04 "HgN/A
3:00 PM14 °FScattered clouds.1 mph62%30.04 "HgN/A
2:30 PM16 °FScattered clouds.1 mph57%30.04 "HgN/A
2:00 PM14 °FScattered clouds.3 mph62%30.04 "HgN/A
1:30 PM14 °FScattered clouds.3 mph57%30.04 "HgN/A
1:00 PM12 °FScattered clouds.3 mph62%30.04 "HgN/A
12:30 PM12 °FPassing clouds.3 mph57%30.07 "HgN/A
12:00 PM9 °FPassing clouds.3 mph72%30.07 "HgN/A
11:00 AM3 °FPassing clouds.No wind85%30.07 "HgN/A
10:30 AM-4 °FPassing clouds.No wind77%30.07 "Hg5 mi
9:30 AM-15 °FPassing clouds.3 mph83%30.07 "HgN/A
9:00 AM-18 °FClear.1 mph83%30.07 "HgN/A
8:30 AM-22 °FClear.No wind75%30.07 "Hg5 mi
8:00 AM-26 °FPassing clouds.No wind75%30.04 "Hg5 mi
7:30 AM-26 °FPassing clouds.1 mph75%30.04 "Hg5 mi
7:00 AM-27 °FPassing clouds.1 mph74%30.01 "Hg5 mi
6:30 AM-24 °FPassing clouds.No wind82%30.01 "HgN/A
6:00 AM-20 °FPassing clouds.1 mph75%30.01 "HgN/A
5:30 AM-22 °FPassing clouds.3 mph75%30.01 "HgN/A
5:00 AM-24 °FPassing clouds.1 mph75%29.98 "HgN/A
4:00 AM-22 °FPassing clouds.1 mph75%29.98 "HgN/A
3:00 AM-17 °FPassing clouds.3 mph83%29.95 "HgN/A
2:00 AM-11 °FPassing clouds.6 mph84%29.92 "HgN/A
1:00 AM-11 °FPassing clouds.3 mph84%29.92 "HgN/A
12:00 AM-9 °FPassing clouds.6 mph84%29.89 "HgN/A
11:00 PM
Sun, Feb 7
-6 °FPassing clouds.6 mph84%29.86 "Hg4 mi
10:30 PM-4 °FPassing clouds.3 mph84%29.86 "Hg4 mi
10:00 PM-2 °FPassing clouds.3 mph84%29.86 "Hg5 mi
9:30 PM-2 °FPassing clouds.3 mph84%29.86 "Hg5 mi
9:00 PM-2 °FPassing clouds.3 mph84%29.86 "Hg4 mi
8:30 PM-2 °FPassing clouds.1 mph84%29.86 "Hg4 mi
8:00 PM1 °FPassing clouds.6 mph78%29.83 "HgN/A
7:30 PM3 °FPassing clouds.8 mph72%29.83 "HgN/A
7:00 PM3 °FPassing clouds.6 mph78%29.80 "HgN/A
6:30 PM1 °FPassing clouds.6 mph78%29.77 "HgN/A
6:00 PM5 °FPassing clouds.1 mph85%29.77 "HgN/A
Weather by CustomWeather, © 2016

See weather overviewHow to use our weather pages